Weather in Shepsi

Russia / Krasnodar Krai     44°02′30″N   39°08′58″E
temp.,
°C
wind,
m/s
gust,
m/s
humid.,
%
clouds,
%
prec.,
mm/h
press.,
hPa
HPBL,
m
25 june, sat
sat2500:00+18ese337465 0.0 1010277
03:00+18e336951 0.3 1010160
06:00+18ene226918 0.0 1010106
09:00+21ssw22555 0.0 1010521
12:00+21sw33635 0.1 1010651
15:00+21sw2264100 0.3 1010529
18:00+20nw2273100 0.3 1009200
21:00+19nnw2278100 0.4 1009212
26 june, sun
sun2600:00+19e0177100 0.0 1009237
03:00+18nne2283100 0.2 100971
06:00+18nne1183100 1.3 1009126
09:00+17n1193100 5.4 1009166
12:00+19sw1186100 2.9 1010275
15:00+19wsw1187100 3.6 1010253
18:00+19s2287100 1.3 1011367
21:00+19sse2284100 1.4 1012380
27 june, mon
mon2700:00+19se2283100 0.0 1012336
03:00+18e2286100 0.2 1012186
06:00+19ne118121 0.0 1012157
09:00+21w217195 0.0 1012431
12:00+21w337658 0.1 1012467
15:00+22w557315 0.1 1010619
18:00+23ssw2277100 0.1 1009325
21:00+20se4589100 0.1 1011212
28 june, tue
tue2800:00+20se3488100 0.1 1011219
03:00+19ene2287100 0.1 1011122
06:00+20nne1186100 0.9 1011106
09:00+21wnw218066 1.1 1011312
12:00+21w3283100 0.1 1012410
15:00+22wsw327811 0.1 1011494
18:00+23wsw21775 0.1 1010344
21:00+21sse4588100 0.3 1011285
29 june, wed
wed2900:00+20ese239090 1.6 1012166
03:00+21ne118787 1.8 101181
06:00+20nne1187100 0.0 1011104
09:00+22s2281100 0.1 1011390
12:00+22sw2282100 0.3 1011391
15:00+23sw3379100 0.4 1011434
18:00+22sw2283100 0.0 1010298
21:00+21s3387100 0.1 1010222